Weather History for Osceola, WI

Change the Weather History Date:

Tuesday, March 5, 2013

  Actual Average (KMSP) Record (KMSP)
Temperature  
Mean Temperature 24 °F 28 °F  
Max Temperature 28 °F 36 °F 72 °F (2000)
Min Temperature 19 °F 20 °F -14 °F (1960)
Degree Days  
Heating Degree Days 42 37  
Month to date heating degree days 190  
Since 1 July heating degree days 5980  
Cooling Degree Days 0 0  
Month to date cooling degree days 0  
Year to date cooling degree days 0  
Moisture  
Dew Point 23 °F    
Average Humidity 88    
Maximum Humidity 100    
Minimum Humidity 74    
Precipitation  
Precipitation 0.00 in 0.05 in 0.70 in (1961)
Month to date precipitation 0.25  
Year to date precipitation 1.92  
Snow  
Snow 0.00 in 0.40 in 11.00 in (1915)
Month to date snowfall 2.1  
Since 1 July snowfall 43.8  
Snow Depth -    
Sea Level Pressure  
Sea Level Pressure 30.13 in    
Wind  
Wind Speed 8 mph (NE)    
Max Wind Speed 13 mph    
Max Gust Speed 18 mph    
Visibility 5 miles    
Events Snow    
T = Trace of Precipitation, MM = Missing Value Source: NWS Daily Summary

Daily Weather History Graph

Daily Weather History Graph

Search for Another Location

Airport:

Trip Planner

Search our weather history database for the weather conditions in past years. The results will help you decide how hot, cold, wet, or windy it might be!

Date:

Astronomy

Mar. 05, 2013 Rise Set
Actual Time 6:41 AM CST 6:03 PM CST
Civil Twilight 6:11 AM CST 6:33 PM CST
Nautical Twilight 5:37 AM CST 7:07 PM CST
Astronomical Twilight 5:03 AM CST 7:41 PM CST
Moon 2:06 AM CST (3/5) 11:30 AM CST (3/5)
Length of Visible Light 12h 21m
Length of Day
11h 22m
Last Quarter, 40% of the Moon is Illuminated
Mar 5
Last Quarter
Mar 11
New
Mar 19
First Quarter
Mar 27
Full
Apr 2
Last Quarter

Hourly Weather History & Observations

Time (CST) Temp. Windchill Dew Point Humidity Pressure Visibility Wind Dir Wind Speed Gust Speed Precip Events Conditions
12:15 AM 26.6 °F 18.2 °F 23.0 °F 86% 30.04 in 3.0 mi East 8.1 mph - N/A Snow Light Snow
12:35 AM 24.8 °F 16.1 °F 23.0 °F 93% 30.04 in 1.8 mi East 8.1 mph - N/A Snow Light Snow
12:55 AM 24.8 °F 15.3 °F 23.0 °F 93% 30.04 in 1.8 mi East 9.2 mph - N/A Snow Light Snow
1:15 AM 24.8 °F 14.6 °F 23.0 °F 93% 30.03 in 1.2 mi East 10.4 mph - N/A Snow Light Snow
1:35 AM 24.8 °F 16.1 °F 23.0 °F 93% 30.03 in 1.2 mi East 8.1 mph - N/A Snow Snow
1:55 AM 24.8 °F 15.3 °F 23.0 °F 93% 30.03 in 1.0 mi East 9.2 mph - N/A Snow Snow
2:15 AM 24.8 °F 16.1 °F 23.0 °F 93% 30.02 in 0.8 mi East 8.1 mph - N/A Snow Snow
2:55 AM 24.8 °F 16.9 °F 23.0 °F 93% 30.02 in 1.0 mi East 6.9 mph - N/A Snow Snow
3:15 AM 24.8 °F 16.9 °F 23.0 °F 93% 30.02 in 1.0 mi East 6.9 mph - N/A Snow Snow
3:35 AM 23.0 °F 15.8 °F 23.0 °F 100% 30.02 in 1.0 mi East 5.8 mph - N/A Snow Snow
3:55 AM 24.8 °F 17.9 °F 23.0 °F 93% 30.01 in 1.2 mi East 5.8 mph - N/A Snow Light Snow
4:15 AM 23.0 °F 15.8 °F 23.0 °F 100% 30.01 in 1.2 mi East 5.8 mph - N/A Snow Light Snow
4:55 AM 24.8 °F 17.9 °F 23.0 °F 93% 30.02 in 1.2 mi East 5.8 mph - N/A Snow Light Snow
5:15 AM 24.8 °F 19.1 °F 23.0 °F 93% 30.02 in 1.2 mi East 4.6 mph - N/A Snow Light Snow
5:35 AM 24.8 °F 16.9 °F 23.0 °F 93% 30.03 in 1.2 mi East 6.9 mph - N/A Snow Light Snow
5:55 AM 24.8 °F 16.9 °F 23.0 °F 93% 30.03 in 1.5 mi East 6.9 mph - N/A Snow Light Snow
6:15 AM 24.8 °F 17.9 °F 23.0 °F 93% 30.04 in 2.0 mi East 5.8 mph - N/A Snow Light Snow
6:35 AM 24.8 °F 16.1 °F 23.0 °F 93% 30.04 in 1.8 mi East 8.1 mph - N/A Snow Light Snow
7:15 AM 24.8 °F 16.9 °F 23.0 °F 93% 30.04 in 0.8 mi ENE 6.9 mph - N/A Snow Light Snow
7:35 AM 23.0 °F 15.8 °F 23.0 °F 100% 30.04 in 0.8 mi East 5.8 mph - N/A Snow Light Snow
7:55 AM 24.8 °F 16.9 °F 23.0 °F 93% 30.05 in 0.8 mi ENE 6.9 mph - N/A Snow Light Snow
8:15 AM 24.8 °F 16.9 °F 23.0 °F 93% 30.06 in 0.5 mi ENE 6.9 mph - N/A Snow Snow
8:35 AM 24.8 °F 16.9 °F 23.0 °F 93% 30.06 in 0.5 mi NE 6.9 mph - N/A Snow Snow
8:55 AM 24.8 °F 17.9 °F 23.0 °F 93% 30.06 in 0.8 mi NE 5.8 mph - N/A Snow Light Snow
9:15 AM 24.8 °F 16.9 °F 23.0 °F 93% 30.07 in 0.8 mi NE 6.9 mph - N/A Snow Light Snow
9:35 AM 26.6 °F 17.5 °F 23.0 °F 86% 30.07 in 0.8 mi NE 9.2 mph - N/A Snow Light Snow
9:55 AM 26.6 °F 17.5 °F 23.0 °F 86% 30.07 in 1.8 mi NE 9.2 mph - N/A Snow Light Snow
10:15 AM 26.6 °F 18.2 °F 23.0 °F 86% 30.08 in 1.2 mi NE 8.1 mph - N/A Snow Light Snow
10:35 AM 26.6 °F 17.5 °F 23.0 °F 86% 30.08 in 1.2 mi NE 9.2 mph - N/A Snow Light Snow
10:55 AM 26.6 °F 17.5 °F 23.0 °F 86% 30.08 in 3.0 mi NNE 9.2 mph - N/A Snow Light Snow
11:15 AM 28.4 °F 19.7 °F 23.0 °F 80% 30.08 in 4.0 mi NNE 9.2 mph - N/A Snow Light Snow
11:35 AM 28.4 °F 18.5 °F 23.0 °F 80% 30.09 in 3.0 mi NE 11.5 mph - N/A Snow Light Snow
11:55 AM 28.4 °F 18.5 °F 23.0 °F 80% 30.10 in 3.0 mi NE 11.5 mph - N/A Snow Light Snow
12:15 PM 26.6 °F 16.8 °F 23.0 °F 86% 30.10 in 3.0 mi NE 10.4 mph - N/A Snow Light Snow
12:35 PM 28.4 °F 18.5 °F 23.0 °F 80% 30.10 in 1.2 mi NE 11.5 mph - N/A Snow Light Snow
12:55 PM 28.4 °F 19.1 °F 24.8 °F 86% 30.11 in 2.5 mi NNE 10.4 mph - N/A Snow Light Snow
1:15 PM 28.4 °F 19.7 °F 23.0 °F 80% 30.10 in 7.0 mi NE 9.2 mph - N/A Snow Light Snow
1:35 PM 28.4 °F 19.7 °F 23.0 °F 80% 30.11 in 3.0 mi NNE 9.2 mph - N/A Snow Light Snow
1:55 PM 28.4 °F 18.0 °F 21.2 °F 74% 30.11 in 10.0 mi NNE 12.7 mph - N/A   Overcast
2:15 PM 28.4 °F 19.1 °F 21.2 °F 74% 30.12 in 4.0 mi NNE 10.4 mph - N/A Snow Light Snow
2:35 PM 28.4 °F 18.0 °F 23.0 °F 80% 30.12 in 4.0 mi NNE 12.7 mph 18.4 mph N/A Snow Light Snow
2:55 PM 28.4 °F 19.1 °F 23.0 °F 80% 30.13 in 5.0 mi NNE 10.4 mph - N/A Snow Light Snow
3:15 PM 28.4 °F 19.7 °F 23.0 °F 80% 30.13 in 7.0 mi NNE 9.2 mph - N/A Snow Light Snow
3:35 PM 28.4 °F 19.1 °F 23.0 °F 80% 30.14 in 7.0 mi NNE 10.4 mph - N/A   Overcast
3:55 PM 28.4 °F 20.4 °F 23.0 °F 80% 30.15 in 7.0 mi NNE 8.1 mph - N/A   Overcast
4:15 PM 28.4 °F 22.2 °F 23.0 °F 80% 30.16 in 10.0 mi North 5.8 mph - N/A   Overcast
4:35 PM 28.4 °F 22.2 °F 24.8 °F 86% 30.16 in 10.0 mi NNW 5.8 mph - N/A   Overcast
4:55 PM 28.4 °F 21.2 °F 24.8 °F 86% 30.17 in 7.0 mi NNW 6.9 mph - N/A   Overcast
5:15 PM 28.4 °F 19.7 °F 24.8 °F 86% 30.18 in 5.0 mi NNW 9.2 mph - N/A Snow Light Snow
5:35 PM 28.4 °F 21.2 °F 24.8 °F 86% 30.19 in 2.5 mi NNW 6.9 mph - N/A Snow Light Snow
5:55 PM 28.4 °F 22.2 °F 26.6 °F 93% 30.19 in 5.0 mi NW 5.8 mph - N/A Snow Light Snow
6:15 PM 28.4 °F 21.2 °F 26.6 °F 93% 30.21 in 4.0 mi NNW 6.9 mph - N/A Snow Light Snow
6:35 PM 28.4 °F 24.6 °F 26.6 °F 93% 30.22 in 5.0 mi NNW 3.5 mph - N/A Snow Light Snow
6:55 PM 28.4 °F 20.4 °F 24.8 °F 86% 30.22 in 10.0 mi North 8.1 mph - N/A   Overcast
7:15 PM 26.6 °F 16.2 °F 23.0 °F 86% 30.23 in 7.0 mi North 11.5 mph - N/A Snow Light Snow
7:35 PM 26.6 °F 17.5 °F 23.0 °F 86% 30.23 in 10.0 mi North 9.2 mph - N/A Snow Light Snow
7:55 PM 24.8 °F 15.3 °F 21.2 °F 86% 30.24 in 10.0 mi North 9.2 mph - N/A   Mostly Cloudy
8:15 PM 24.8 °F 14.6 °F 21.2 °F 86% 30.25 in 10.0 mi North 10.4 mph - N/A   Overcast
8:35 PM 24.8 °F 15.3 °F 21.2 °F 86% 30.25 in 10.0 mi North 9.2 mph - N/A   Overcast
8:55 PM 24.8 °F 16.1 °F 21.2 °F 86% 30.26 in 10.0 mi North 8.1 mph - N/A   Overcast
9:15 PM 24.8 °F 16.9 °F 19.4 °F 80% 30.27 in 10.0 mi North 6.9 mph 10.4 mph N/A   Overcast
9:35 PM 23.0 °F 15.8 °F 19.4 °F 86% 30.28 in 10.0 mi North 5.8 mph - N/A   Mostly Cloudy
9:55 PM 21.2 °F 13.6 °F 17.6 °F 86% 30.29 in 10.0 mi NNW 5.8 mph - N/A   Clear
10:15 PM 21.2 °F 13.6 °F 17.6 °F 86% 30.30 in 10.0 mi NNW 5.8 mph - N/A   Clear
10:35 PM 21.2 °F 12.6 °F 17.6 °F 86% 30.30 in 10.0 mi NNW 6.9 mph - N/A   Scattered Clouds
10:55 PM 21.2 °F 12.6 °F 17.6 °F 86% 30.29 in 10.0 mi NNW 6.9 mph - N/A   Mostly Cloudy
11:15 PM 19.4 °F 12.8 °F 17.6 °F 93% 30.29 in 10.0 mi North 4.6 mph - N/A   Mostly Cloudy
11:35 PM 19.4 °F 14.3 °F 17.6 °F 93% 30.30 in 10.0 mi NW 3.5 mph - N/A   Scattered Clouds
11:55 PM 19.4 °F - 17.6 °F 93% 30.31 in 10.0 mi Calm Calm - N/A   Clear